This demonstration page uses our WeatherBlox Daily Observations layout. Learn more.

Left ArrowRight Arrow

Hourly Observations for May 25, 2022

Temp ( °F °C ) Dew Point ( °F °C ) Humidity (%) Winds ( mph kmh ) Pressure ( in mb ) Visibility ( mi km ) Precip ( " mm )
12:51 am 00:51 Clear 66 18.9 15 -9.4 14 14 NNW 7 11 29.72 1007 10 16 0.00 0.00
1:51 am 01:51 Clear 62 16.7 13 -10.6 14 14 SSE 3 6 29.72 1007 10 16 0.00 0.00
2:51 am 02:51 Clear 60 15.6 12 -11.1 15 15 E 7 11 29.75 1008 10 16 0.00 0.00
3:51 am 03:51 Clear 57 13.9 12 -11.1 17 17 NE 3 6 29.77 1008 10 16 0.00 0.00
4:51 am 04:51 Clear 56 13.3 12 -11.1 17 17 ESE 5 7 29.78 1009 10 16 0.00 0.00
5:51 am 05:51 Sunny 60 15.6 14 -10 16 16 ESE 7 11 29.80 1009 10 16 0.00 0.00
6:51 am 06:51 Sunny 64 17.8 15 -9.4 15 15 Calm 29.81 1010 10 16 0.00 0.00
7:51 am 07:51 Sunny 76 24.4 20 -6.7 12 12 NE 3 6 29.82 1010 10 16 0.00 0.00
8:51 am 08:51 Sunny 79 26.1 24 -4.4 13 13 SW 6 9 29.82 1010 10 16 0.00 0.00
9:51 am 09:51 Sunny 83 28.3 28 -2.2 13 13 WNW 8 13 29.81 1010 10 16 0.00 0.00
10:51 am 10:51 Sunny 84 28.9 28 -2.2 13 13 VRB 5 7 29.81 1009 10 16 0.00 0.00
11:51 am 11:51 Sunny 88 31.1 23 -5 9 9 undefined N/A 29.78 1009 10 16 0.00 0.00
12:51 pm 12:51 Sunny 93 33.9 22 -5.6 7 7 W 17 28 29.74 1007 10 16 0.00 0.00
1:51 pm 13:51 Sunny 94 34.4 21 -6.1 7 7 W 20 31 29.72 1007 10 16 0.00 0.00
2:51 pm 14:51 Sunny 95 35 20 -6.7 6 6 W 13 20 29.70 1006 10 16 0.00 0.00
3:51 pm 15:51 Sunny 95 35 20 -6.7 6 6 WNW 13 20 29.69 1005 10 16 0.00 0.00
4:51 pm 16:51 Sunny 95 35 20 -6.7 6 6 W 16 26 29.67 1005 10 16 0.00 0.00
5:51 pm 17:51 Sunny 93 33.9 20 -6.7 7 7 W 16 26 29.67 1005 10 16 0.00 0.00
6:51 pm 18:51 Sunny 91 32.8 20 -6.7 7 7 WNW 13 20 29.67 1005 10 16 0.00 0.00
7:51 pm 19:51 Clear 84 28.9 22 -5.6 10 10 NW 7 11 29.69 1006 10 16 0.00 0.00
8:51 pm 20:51 Clear 82 27.8 22 -5.6 11 11 NW 10 17 29.71 1006 10 16 0.00 0.00
9:51 pm 21:51 Clear 79 26.1 23 -5 12 12 NW 10 17 29.74 1007 10 16 0.00 0.00
10:51 pm 22:51 Clear 78 25.6 24 -4.4 13 13 WNW 13 20 29.75 1008 10 16 0.00 0.00
11:51 pm 23:51 Clear 74 23.3 23 -5 15 15 NW 12 19 29.75 1008 10 16 0.00 0.00

Powered by AerisWeather